Location: Unspecified
(41.1637°N, 24.2901°E)
Time: 08:03:48
(UTC+01:00)

ISS - Pass Details

Date: 09 December 2018
Orbit: 401 x 408 km, 51.6° (Epoch: 12 December)

Event Time Altitude Azimuth Distance (km) Brightness Sun altitude
Rises 16:46:38 0° 310° (NW) 2,319 0.4 -9.7°
Reaches altitude 10° 16:49:00 10° 326° (NW) 1,457 -0.9 -10.2°
Maximum altitude 16:51:41 23° 21° (NNE) 908 -2.4 -10.6°
Enters shadow 16:53:10 17° 60° (ENE) 1,104 -2.3 -10.9°
